Location: Chittendens Corners
(41.2320°N, 81.4940°W)
Time: 17:49:48
(UTC+00:00)

Cosmos 2369 - Pass Details

Date: 29 October 2020
Orbit: 841 x 854 km, 71.0° (Epoch: 28 November)

Event Time Altitude Azimuth Distance (km) Brightness Sun altitude
Rises 23:30:21 0° 190° (S) 3,407 7.1 -12.9°
Reaches altitude 10° 23:32:50 10° 186° (S) 2,474 6.3 -13.4°
Maximum altitude 23:38:23 57° 109° (ESE) 997 3.8 -14.4°
Drops below altitude 10° 23:43:57 10° 32° (NNE) 2,483 5.8 -15.5°
Enters shadow 23:45:11 - 30° (NNE) 2,944 6.2 -15.7°
